Powrót do katalogu

SL-16 DEB

LostLEO
NORAD 42247·DEBRIS·🇷🇺 Russia

Wystrzelony Mar 26, 1993 z Baikonur Cosmodrome

Loading…

Następne Przeloty (najbliższe 24 godziny)

TLE

NieaktualneSource: Space-Track

Epoka: Mar 16, 2025, 10:15 UTC

1 42247U 93016DB  25075.42757853  .00210602  00000-0  17909-1 0  9996
2 42247  70.9658  97.9802 0032588  39.6930 320.6610 14.96250917 70488

Śledź SL-16 DEB w czasie rzeczywistym z AllMySat

Download on the App Store